Weather in Alexandrovka

Ukraine / Mykolaiv District     46°50′13″N   32°45′39″E
temp.,
°C
wind,
m/s
gust,
m/s
humid.,
%
clouds,
%
prec.,
mm/h
press.,
hPa
HPBL,
m
25 may, wed
wed2500:00+14w366691 0.0 1015185
03:00+12nnw236721 0.0 101636
06:00+13wnw225894 0.0 101736
09:00+18nw224328 0.0 1018529
12:00+22w343251 0.0 10192390
15:00+23wsw453280 0.0 10182621
18:00+20wsw674241 0.0 1019920
21:00+16sw495244 0.0 1019306
26 may, thu
thu2600:00+14sw4106284 0.0 1020245
03:00+13ssw410737 0.0 1019270
06:00+13s411775 0.0 1018347
09:00+18ssw8115395 0.0 1018993
12:00+20sw91244100 0.0 10171359
15:00+15sw5977100 1.1 1017847
18:00+17w478689 0.3 1017583
21:00+15sw22875 0.3 101723
27 may, fri
fri2700:00+14sw49916 0.0 1018171
03:00+13w48835 0.0 1018134
06:00+13wnw387493 0.0 1018141
09:00+20w475528 0.0 1019428
12:00+24w69415 0.0 10182083
15:00+23wsw7949100 0.0 1017960
18:00+22sw7105285 0.0 1016889
21:00+18sw613611 0.0 1016394
28 may, sat
sat2800:00+16sw614695 0.0 1015387
03:00+16ssw6147164 0.0 1013389
06:00+17ssw7146855 0.0 1013486
09:00+21wsw676522 0.0 1013722
12:00+24sw66521 0.0 10121193
15:00+25sw78470 0.0 10121306
18:00+23sw67458 0.0 1011979
21:00+19sw3655100 0.0 1012230
29 may, sun
sun2900:00+17n3478100 0.0 1013273
03:00+15ne4685100 0.0 1013231
06:00+14nne4579100 0.0 1014289
09:00+15ne5681100 0.0 1015367
12:00+17ne4471100 0.0 1016574
15:00+16n5676100 0.0 1016353
18:00+19ne55684 0.0 1015523
21:00+16ne48840 0.0 1015202